Regional Weather Roundup
Issued by NWS Sioux Falls, SD

Home | Current Version | Previous Version | Text Only | Print | Product List | Glossary On
Versions: 1 2 3 4 5 6 7 8 9 10 11 12 13 14 15 16 17 18 19 20 21 22 23 24 25 26 27 28 29 30 31 32 33 34 35 36 37 38 39 40 41 42 43 44 45 46 47 48 49 50
000
ASUS43 KFSD 281610
RWRFSD

WEATHER ROUNDUP FOR SE SOUTH DAKOTA/SW MINNESOTA/NW IOWA
NATIONAL WEATHER SERVICE SIOUX FALLS SD
1000 AM CST FRI NOV 28 2014

NOTE: "FAIR" INDICATES FEW OR NO CLOUDS BELOW 12,000 FEET WITH NO
SIGNIFICANT WEATHER AND OR OBSTRUCTIONS TO VISIBILITY.


SDZ038>040-050-052>070-281700-
SOUTHEAST SOUTH DAKOTA

CITY           SKY/WX    TMP DP  RH WIND       PRES   REMARKS
CHAMBERLAIN    SUNNY     32  24  72 SE3       29.71S
HURON          PTSUNNY   26  19  74 SE7       29.78F WCI  18
MADISON        FAIR      21  21 100 SE7       29.79S WCI  13
MITCHELL       MOSUNNY   27  21  78 E7        29.79S WCI  19
SIOUX FALLS    CLOUDY    24  20  84 E5        29.81S WCI  18
WINNER         FAIR      49  29  46 SW6       29.68F
YANKTON        MOSUNNY   30  21  69 E7        29.78F WCI  23
$$

MNZ071-072-080-081-089-090-097-098-281700-
SOUTHWEST MINNESOTA

CITY           SKY/WX    TMP DP  RH WIND       PRES   REMARKS
FAIRMONT       CLOUDY    18  12  79 S16       29.89F WCI   3
JACKSON        CLOUDY    19  16  86 SE9       29.85F WCI   9
LUVERNE        CLOUDY    27  21  80 SE7       29.82F WCI  19
MARSHALL       CLOUDY    14   9  79 SE6       29.87R WCI   5
MONTEVIDEO     PTSUNNY   12   9  85 SE10      29.91F WCI  -1
PIPESTONE      CLOUDY    21  19  93 SE7       29.80S WCI  13
REDWOOD FALLS  CLOUDY    16  10  77 E6        29.92R WCI   7
TRACY          CLOUDY    19  15  84 SE3       29.86S
WINDOM           N/A     19  16  86 SE8       29.84F WCI   9
WORTHINGTON    CLOUDY    19  18  93 S9        29.83F WCI   9
$$

IAZ001>003-012>014-020>022-031-032-NEZ013-014-SDZ071-281700-
NORTHWEST IOWA

CITY           SKY/WX    TMP DP  RH WIND       PRES   REMARKS
CHEROKEE       PTSUNNY   30  26  82 S8        29.82F WCI  23
DENISON        SUNNY     32  25  74 S8        29.85F WCI  25
ESTHERVILLE    CLOUDY    18  15  88 SE13      29.88R WCI   5
LE MARS        SUNNY     30  25  80 S7        29.82S WCI  23
ORANGE CITY    MOSUNNY   30  25  80 S6        29.81S WCI  24
SHELDON        PTSUNNY   23  21  93 E8        29.81F WCI  14
SIOUX CITY     MOSUNNY   31  23  72 S10       29.83F WCI  22
SPENCER        PTSUNNY   22  17  81 SE8       29.86S WCI  12
STORM LAKE     PTSUNNY   23  21  93 SE9       29.84F WCI  13
$$

ABBREVIATIONS USED IN REMARKS
   TC - TEMPERATURE IN CELSIUS
  WCI - WIND CHILL INDEX
   HX - HEAT INDEX
  VSB - VISIBILITY




USA.gov is the U.S. government's official web portal to all federal, state and local government web resources and services.